TimeEDT,TemperatureF,Dew PointF,Humidity,Sea Level PressureIn,VisibilityMPH,Wind Direction,Wind SpeedMPH,Gust SpeedMPH,PrecipitationIn,Events,Conditions,WindDirDegrees,DateUTC
12:53 AM,51.1,48.0,89,30.31,10.0,Calm,Calm,-,N/A,,Clear,0,2012-09-12 04:53:00
1:53 AM,50.0,46.9,89,30.31,10.0,Calm,Calm,-,N/A,,Clear,0,2012-09-12 05:53:00
2:53 AM,48.9,46.9,93,30.31,10.0,Calm,Calm,-,N/A,,Clear,0,2012-09-12 06:53:00
3:53 AM,48.9,46.0,90,30.31,10.0,Calm,Calm,-,N/A,,Clear,0,2012-09-12 07:53:00
4:53 AM,48.0,45.0,89,30.32,10.0,Calm,Calm,-,N/A,,Clear,0,2012-09-12 08:53:00
5:53 AM,46.9,44.1,90,30.32,10.0,Calm,Calm,-,N/A,,Clear,0,2012-09-12 09:53:00
6:53 AM,46.9,44.1,90,30.34,9.0,Calm,Calm,-,N/A,,Clear,0,2012-09-12 10:53:00
7:53 AM,51.1,48.0,89,30.36,10.0,Calm,Calm,-,N/A,,Clear,0,2012-09-12 11:53:00
8:53 AM,55.9,51.1,84,30.37,10.0,Calm,Calm,-,N/A,,Clear,0,2012-09-12 12:53:00
9:53 AM,62.1,52.0,70,30.38,10.0,Calm,Calm,-,N/A,,Clear,0,2012-09-12 13:53:00
10:53 AM,66.9,52.0,59,30.38,10.0,Calm,Calm,-,N/A,,Clear,0,2012-09-12 14:53:00
11:53 AM,72.0,53.1,51,30.37,10.0,SSE,3.5,-,N/A,,Clear,150,2012-09-12 15:53:00
12:53 PM,75.9,53.1,45,30.35,10.0,WSW,6.9,-,N/A,,Clear,240,2012-09-12 16:53:00
1:53 PM,79.0,52.0,39,30.33,10.0,Variable,3.5,-,N/A,,Clear,0,2012-09-12 17:53:00
2:53 PM,79.0,50.0,36,30.31,10.0,SSW,4.6,-,N/A,,Clear,210,2012-09-12 18:53:00
3:53 PM,80.1,50.0,35,30.30,10.0,Variable,4.6,-,N/A,,Clear,0,2012-09-12 19:53:00
4:53 PM,80.1,53.1,39,30.30,10.0,SSE,5.8,-,N/A,,Clear,150,2012-09-12 20:53:00
5:53 PM,78.1,53.1,42,30.30,10.0,SE,6.9,-,N/A,,Clear,130,2012-09-12 21:53:00
6:53 PM,73.9,52.0,46,30.31,10.0,SSE,4.6,-,N/A,,Clear,150,2012-09-12 22:53:00
7:53 PM,68.0,53.1,59,30.31,10.0,SSE,3.5,-,N/A,,Clear,150,2012-09-12 23:53:00
8:53 PM,64.0,54.0,70,30.33,10.0,Calm,Calm,-,N/A,,Clear,0,2012-09-13 00:53:00
9:53 PM,61.0,54.0,78,30.34,10.0,Calm,Calm,-,N/A,,Clear,0,2012-09-13 01:53:00
10:53 PM,59.0,54.0,83,30.34,10.0,Calm,Calm,-,N/A,,Clear,0,2012-09-13 02:53:00
11:53 PM,57.9,54.0,87,30.34,10.0,Calm,Calm,-,N/A,,Clear,0,2012-09-13 03:53:00